Tarboro, NC

1:59 PM EST on February 21, 2018 (GMT -0500)
Tarboro-edgecombe

Weather History for KETC - October, 2012

Change the Weather History Date:

Sunday, October 28, 2012

  Actual Average Record
Temperature  
Mean Temperature 58 °F -  
Max Temperature 85 °F 72 °F 95 °F (2014)
Min Temperature 54 °F 46 °F 27 °F (1976)
Degree Days  
Heating Degree Days 8    
Growing Degree Days 8 (Base 50)    
Moisture  
Dew Point 52 °F    
Average Humidity 77    
Maximum Humidity 88    
Minimum Humidity 68    
Precipitation  
Precipitation 0.01 in - - ()
Sea Level Pressure  
Sea Level Pressure 29.54 in    
Wind  
Wind Speed 14 mph (NNW)    
Max Wind Speed 20 mph    
Max Gust Speed 33 mph    
Visibility 10 miles    
Events Rain    
Averages and records for this station are not official NWS values.
T = Trace of Precipitation, MM = Missing Value Source: NWS Daily Summary

Daily Weather History Graph

Daily Weather History Graph

Search for Another Location

Airport or City:

Trip Planner

Search our weather history database for the weather conditions in past years. The results will help you decide how hot, cold, wet, or windy it might be!

Date:

Astronomy

Oct. 28, 2012 Rise Set
Actual Time 7:29 AM EDT 6:18 PM EDT
Civil Twilight 7:02 AM EDT 6:44 PM EDT
Nautical Twilight 6:32 AM EDT 7:14 PM EDT
Astronomical Twilight 6:02 AM EDT 7:44 PM EDT
Moon 5:34 PM EDT (10/28) 6:21 AM EDT (10/28)
Length of Visible Light 11h 41m
Length of Day
10h 48m
Waxing Gibbous, 99% of the Moon is Illuminated
Oct 28
Waxing Gibbous
Oct 29
Full
Nov 6
Last Quarter
Nov 13
New
Nov 20
First Quarter

Hourly Weather History & Observations

Time (EDT) Temp. Dew Point Humidity Pressure Visibility Wind Dir Wind Speed Gust Speed Precip Events Conditions
12:15 AM 61.5 °F 57.2 °F 86% 29.65 in 10.0 mi NNE 12.7 mph 25.3 mph N/A   Light Drizzle
12:35 AM 61.3 °F 57.0 °F 86% 29.64 in 10.0 mi North 16.1 mph 21.9 mph N/A   Overcast
12:55 AM 61.2 °F 57.0 °F 86% 29.64 in 10.0 mi North 10.4 mph 19.6 mph N/A   Drizzle
1:15 AM 61.0 °F 56.8 °F 86% 29.63 in 10.0 mi North 10.4 mph 23.0 mph N/A Rain Light Rain
1:35 AM 61.0 °F 56.7 °F 86% 29.63 in 10.0 mi NNE 12.7 mph 18.4 mph N/A   Light Drizzle
1:55 AM 61.0 °F 56.5 °F 85% 29.63 in 10.0 mi North 12.7 mph 20.7 mph N/A Rain Light Rain
2:15 AM 61.0 °F 56.5 °F 85% 29.62 in 10.0 mi North 12.7 mph 19.6 mph N/A Rain Light Rain
2:35 AM 60.8 °F 56.5 °F 86% 29.61 in 10.0 mi NNE 16.1 mph 26.5 mph N/A   Light Drizzle
2:55 AM 61.0 °F 55.9 °F 83% 29.60 in 10.0 mi NNE 18.4 mph 28.8 mph N/A   Light Drizzle
3:15 AM 60.8 °F 55.6 °F 83% 29.58 in 10.0 mi NNE 17.3 mph 28.8 mph N/A   Light Drizzle
3:35 AM 60.8 °F 55.4 °F 82% 29.58 in 10.0 mi NNE 15.0 mph 25.3 mph N/A Rain Light Rain
3:55 AM 60.8 °F 55.4 °F 82% 29.59 in 10.0 mi North 13.8 mph 24.2 mph N/A Rain Light Rain
4:15 AM 60.6 °F 55.4 °F 83% 29.58 in 10.0 mi North 13.8 mph 21.9 mph N/A   Drizzle
4:35 AM 60.3 °F 55.4 °F 84% 29.57 in 10.0 mi North 13.8 mph 24.2 mph 0.01 in Rain Light Rain
4:55 AM 59.9 °F 55.0 °F 84% 29.56 in 10.0 mi NNE 12.7 mph 23.0 mph 0.01 in   Light Drizzle
5:15 AM 59.5 °F 54.5 °F 83% 29.57 in 10.0 mi North 15.0 mph 20.7 mph N/A Rain Rain
5:35 AM 59.9 °F 54.5 °F 82% 29.57 in 10.0 mi North 13.8 mph 19.6 mph N/A   Light Drizzle
5:55 AM 59.9 °F 54.5 °F 82% 29.56 in 10.0 mi North 10.4 mph 18.4 mph N/A   Light Drizzle
6:15 AM 59.9 °F 54.0 °F 81% 29.56 in 10.0 mi North 9.2 mph 16.1 mph N/A   Light Drizzle
6:35 AM 59.9 °F 53.8 °F 80% 29.56 in 10.0 mi North 9.2 mph 18.4 mph N/A   Overcast
6:55 AM 59.9 °F 53.6 °F 80% 29.56 in 10.0 mi North 13.8 mph 19.6 mph N/A   Overcast
7:15 AM 59.5 °F 53.1 °F 79% 29.56 in 10.0 mi NNW 16.1 mph 26.5 mph N/A Rain Light Rain
7:35 AM 59.2 °F 52.9 °F 80% 29.55 in 10.0 mi NNW 13.8 mph 24.2 mph N/A Rain Light Rain
7:55 AM 59.5 °F 52.7 °F 78% 29.56 in 10.0 mi North 11.5 mph 27.6 mph N/A Rain Light Rain
8:15 AM 59.7 °F 52.3 °F 77% 29.57 in 10.0 mi NNW 19.6 mph 33.4 mph N/A Rain Light Rain
8:35 AM 59.2 °F 52.0 °F 77% 29.57 in 10.0 mi NNW 13.8 mph 19.6 mph N/A Rain Rain
8:55 AM 58.3 °F 51.8 °F 79% 29.57 in 10.0 mi North 13.8 mph 25.3 mph N/A   Light Drizzle
9:15 AM 57.9 °F 51.8 °F 80% 29.57 in 10.0 mi North 16.1 mph 27.6 mph N/A   Light Drizzle
9:55 AM 58.6 °F 52.9 °F 81% 29.56 in 10.0 mi North 12.7 mph 23.0 mph N/A   Light Drizzle
10:15 AM 58.5 °F 52.9 °F 82% 29.56 in 10.0 mi North 13.8 mph 25.3 mph N/A   Overcast
10:35 AM 58.6 °F 52.5 °F 80% 29.56 in 10.0 mi North 13.8 mph 24.2 mph N/A   Overcast
10:55 AM 58.8 °F 52.3 °F 79% 29.54 in 10.0 mi NNE 13.8 mph 24.2 mph N/A   Overcast
11:15 AM 58.6 °F 51.8 °F 78% 29.54 in 10.0 mi North 19.6 mph 25.3 mph N/A Rain Light Rain
11:35 AM 58.6 °F 51.1 °F 76% 29.54 in 10.0 mi North 13.8 mph 33.4 mph N/A   Overcast
11:55 AM 58.5 °F 50.5 °F 75% 29.54 in 10.0 mi North 12.7 mph 23.0 mph N/A   Overcast
12:15 PM 58.6 °F 50.0 °F 73% 29.53 in 10.0 mi North 11.5 mph 19.6 mph N/A   Overcast
12:35 PM 59.0 °F 50.0 °F 72% 29.51 in 10.0 mi North 15.0 mph 19.6 mph N/A   Overcast
12:55 PM 59.0 °F 49.6 °F 71% 29.52 in 10.0 mi NNW 12.7 mph 21.9 mph N/A   Overcast
1:15 PM 59.0 °F 49.3 °F 70% 29.51 in 10.0 mi NNW 15.0 mph 24.2 mph N/A   Overcast
1:35 PM 59.2 °F 49.1 °F 69% 29.52 in 10.0 mi NNW 13.8 mph 23.0 mph N/A   Overcast
1:55 PM 59.2 °F 48.9 °F 69% 29.50 in 10.0 mi North 12.7 mph 25.3 mph N/A   Overcast
2:15 PM 59.2 °F 49.1 °F 69% 29.50 in 10.0 mi NNW 15.0 mph 25.3 mph N/A   Overcast
2:35 PM 59.0 °F 49.1 °F 70% 29.50 in 10.0 mi NNW 17.3 mph 29.9 mph N/A   Overcast
2:55 PM 58.8 °F 49.3 °F 71% 29.50 in 10.0 mi NNW 16.1 mph 27.6 mph N/A   Overcast
3:15 PM 58.6 °F 49.1 °F 71% 29.50 in 10.0 mi NNW 12.7 mph 25.3 mph N/A   Overcast
3:35 PM 58.8 °F 48.9 °F 70% 29.51 in 10.0 mi NNW 15.0 mph 21.9 mph N/A   Overcast
3:55 PM 58.8 °F 48.9 °F 70% 29.51 in 10.0 mi NW 17.3 mph 27.6 mph N/A   Overcast
4:15 PM 58.5 °F 49.3 °F 72% 29.50 in 10.0 mi NNW 16.1 mph 21.9 mph N/A   Overcast
4:35 PM 58.5 °F 49.5 °F 72% 29.50 in 10.0 mi NNW 13.8 mph 27.6 mph N/A   Overcast
4:55 PM 58.8 °F 49.5 °F 71% 29.50 in 10.0 mi NNW 15.0 mph 26.5 mph N/A   Overcast
5:15 PM 58.8 °F 49.5 °F 71% 29.50 in 10.0 mi NNW 11.5 mph 20.7 mph N/A   Overcast
5:35 PM 58.8 °F 49.5 °F 71% 29.51 in 10.0 mi NNW 12.7 mph 25.3 mph N/A   Overcast
5:55 PM 58.5 °F 49.5 °F 72% 29.51 in 10.0 mi NNW 12.7 mph 23.0 mph N/A   Overcast
6:15 PM 58.5 °F 49.5 °F 72% 29.51 in 10.0 mi NNW 16.1 mph 23.0 mph N/A   Overcast
6:35 PM 58.5 °F 49.3 °F 72% 29.51 in 10.0 mi NW 12.7 mph 19.6 mph N/A   Overcast
6:55 PM 58.5 °F 49.1 °F 71% 29.51 in 10.0 mi NNW 11.5 mph 23.0 mph N/A   Overcast
7:15 PM 58.6 °F 48.9 °F 70% 29.52 in 10.0 mi NNW 13.8 mph 18.4 mph N/A   Overcast
7:35 PM 58.6 °F 48.6 °F 69% 29.52 in 10.0 mi NNW 15.0 mph 21.9 mph N/A   Overcast
7:55 PM 58.5 °F 48.4 °F 69% 29.52 in 10.0 mi NW 16.1 mph 24.2 mph N/A   Overcast
8:15 PM 58.5 °F 48.4 °F 69% 29.51 in 10.0 mi NNW 16.1 mph 24.2 mph N/A   Overcast
8:35 PM 58.3 °F 48.0 °F 69% 29.51 in 10.0 mi NNW 13.8 mph 24.2 mph N/A   Overcast
8:55 PM 58.1 °F 47.7 °F 68% 29.51 in 10.0 mi NNW 15.0 mph 24.2 mph N/A   Overcast
9:15 PM 58.1 °F 47.7 °F 68% 29.51 in 10.0 mi NNW 15.0 mph 23.0 mph N/A   Overcast
9:35 PM 57.7 °F 47.7 °F 69% 29.51 in 10.0 mi NW 12.7 mph 19.6 mph N/A   Overcast
9:55 PM 57.4 °F 48.0 °F 71% 29.51 in 10.0 mi NW 13.8 mph 23.0 mph N/A   Overcast
10:15 PM 57.2 °F 48.4 °F 72% 29.51 in 10.0 mi NW 10.4 mph 24.2 mph N/A   Overcast
10:35 PM 56.5 °F 48.9 °F 76% 29.51 in 10.0 mi NW 12.7 mph 24.2 mph N/A   Overcast
10:55 PM 56.1 °F 49.5 °F 78% 29.50 in 10.0 mi NW 16.1 mph 26.5 mph N/A   Overcast
11:15 PM 55.8 °F 49.8 °F 80% 29.50 in 10.0 mi NW 13.8 mph 21.9 mph N/A   Overcast
11:35 PM 54.9 °F 50.4 °F 85% 29.50 in 5.0 mi NW 10.4 mph 17.3 mph N/A   Overcast
11:55 PM 54.3 °F 50.9 °F 88% 29.49 in 5.0 mi NW 15.0 mph 21.9 mph N/A   Overcast